Location: Krakow
(50.0830°N, 19.9170°E)
Time: 18:42:55
(UTC+01:00)

SR - Pass Details

Date: 16 February 2023
Orbit: 582 x 867 km, 66.7° (Epoch: 20 March)

Event Time Altitude Azimuth Distance (km) Brightness Sun altitude
Rises 20:06:22 0° 317° (NW) 2,836 ? -30.3°
Reaches altitude 10° 20:08:47 10° 308° (NW) 1,916 ? -30.6°
Enters shadow 20:11:33 29° 274° (W) 1,087 ? -31.0°
Maximum altitude 20:12:37 33° 244° (WSW) 987 - -31.2°
Drops below altitude 10° 20:16:26 10° 180° (S) 1,910 - -31.8°
Sets 20:18:50 0° 170° (S) 2,826 - -32.1°
